CAPE
52 42 58 47 45 63 77 63 57 51 102 96 65 20 14 59 86 94 1 7 11 34 124 114 152 173 74 117 68 146 189 22 32 59 24 2 4 0 5 3 23 42 35
36 62 60 8 14 76 90 48 54 40 63 61 54 48 36 12 68 78 59 39 51 47 69 92 98 38 104 151 178 149 109 47 5 22 2 7 11 1 7 28 43 12 44
50 48 1 9 28 72 63 73 55 44 34 53 65 72 47 50 50 23 48 67 87 43 31 61 110 96 103 99 154 147 149 9 3 3 9 14 25 2 0 35 77 125 98
33 8 23 69 76 78 59 15 47 58 33 47 53 55 66 36 13 21 36 29 59 59 84 83 63 33 15 30 60 22 5 11 4 21 67 95 61 2 1 40 61 113 124
49 21 9 31 64 45 35 66 66 59 42 45 42 56 53 24 1 3 37 48 56 55 68 67 38 8 0 1 5 37 17 22 49 95 172 138 37 23 66 90 113 66 79
52 22 45 17 38 18 64 79 77 84 76 65 59 57 66 23 0 0 0 24 24 15 18 49 28 1 1 0 0 0 0 8 83 184 198 143 110 142 91 117 144 136 69
67 66 40 9 2 14 16 15 23 15 4 2 5 39 55 20 0 0 0 14 14 17 15 15 25 19 1 0 3 0 0 0 0 81 124 99 93 127 143 161 167 261 188
38 27 26 20 17 6 47 57 57 61 57 3 10 15 14 3 0 0 0 4 9 8 9 17 46 40 2 1 45 84 51 26 40 64 159 141 71 57 38 98 179 247 319
27 9 39 41 56 68 50 54 65 60 16 7 13 34 44 10 0 0 0 4 14 38 42 9 25 1 0 0 35 128 105 78 0 0 0 0 0 0 0 0 73 105 72
51 21 26 50 63 10 13 8 10 26 21 33 60 75 10 10 0 0 0 2 61 73 54 9 0 0 0 0 52 149 93 72 116 141 118 25 8 21 0 10 135 104 84
36 10 44 50 61 53 70 80 58 46 91 84 100 130 95 42 2 0 0 50 76 121 36 19 0 0 0 0 0 38 17 0 0 33 53 104 94 78 128 37 332 292 108
33 18 47 71 58 92 117 105 96 98 93 92 133 153 120 120 4 0 0 0 1 110 80 50 13 0 0 0 0 0 0 0 106 137 67 119 102 131 233 110 482 516 407
18 32 63 76 86 103 71 52 66 108 113 92 121 111 129 51 20 0 0 0 0 69 43 2 0 0 0 0 0 0 0 57 120 113 76 15 90 164 225 138 304 295 783
57 60 63 89 104 69 68 1 0 0 4 20 56 64 30 0 0 0 0 1 11 7 12 47 10 1 0 0 13 5 15 23 28 36 62 57 82 67 45 39 55 82 100
59 92 131 105 94 44 0 0 0 0 0 0 0 0 0 0 0 0 0 0 0 0 0 38 23 13 14 12 12 12 10 6 13 19 20 23 18 20 5 76 40 25 40
94 95 65 72 74 66 25 0 0 0 0 0 0 0 0 0 0 0 0 0 0 0 2 13 7 5 5 4 7 7 4 0 0 5 10 9 8 10 1 11 7 3 1
114 109 92 85 58 40 37 57 4 0 0 0 0 0 0 0 0 0 0 0 0 0 0 0 0 1 1 2 2 0 0 0 9 1 2 3 1 2 2 1 3 0 0
111 10 76 59 61 56 38 20 7 6 2 0 0 0 0 0 0 0 0 0 0 0 0 0 0 0 0 0 0 0 0 0 0 0 0 0 0 0 0 0 0 0 0
39 34 48 68 63 11 16 5 2 0 0 0 0 0 0 0 0 0 0 0 0 0 0 0 0 0 0 0 0 0 12 0 0 0 0 0 0 0 0 0 0 0 0
65 2 4 40 21 11 5 1 1 0 0 0 0 0 0 0 0 0 0 0 0 0 0 0 0 0 0 0 0 0 0 0 0 0 0 0 0 0 0 0 0 0 0
73 48 27 29 5 1 0 1 0 0 0 0 0 0 0 0 0 0 0 0 0 0 0 0 0 0 0 0 0 0 0 0 0 0 0 0 0 0 0 0 0 0 0
66 40 13 3 1 0 0 0 0 0 0 0 0 0 0 0 0 0 0 0 0 0 0 0 0 0 0 0 0 0 0 0 0 0 0 0 0 0 0 0 0 0 0
38 28 10 2 0 0 0 0 0 0 0 0 0 0 0 0 0 0 0 0 0 0 0 0 0 0 0 0 0 0 0 0 0 0 0 0 0 0 0 0 0 0 0
31 40 26 9 0 0 0 0 0 0 0 0 0 0 0 0 0 0 0 0 0 0 0 0 0 0 0 0 0 0 0 0 0 0 0 0 0 0 0 0 0 0 0
20 38 19 38 16 4 0 0 0 0 0 0 0 0 0 0 0 0 0 0 0 0 0 0 0 0 0 0 0 0 0 0 0 0 0 0 0 0 0 0 0 0 0
53 25 43 29 41 13 1 0 0 0 0 0 0 0 0 0 0 0 0 0 0 0 0 0 0 0 0 0 0 0 0 0 0 0 0 0 0 0 0 0 0 0 0
CIN
0 0 0 0 0 0 0 0 0 0 0 -3 0 0 0 0 -1 -1 -30 -15 -14 -9 -2 -1 0 -2 -28 -8 0 0 0 -1 0 0 0 -10 -11 0 0 0 0 0 -2
0 0 0 -16 0 0 0 0 0 0 0 0 0 0 0 -18 0 0 0 0 0 0 -1 -5 -11 0 -31 -4 -3 0 0 0 -1 0 0 -3 0 0 0 0 0 0 -6
0 -1 -9 -12 -1 0 0 0 0 0 0 0 -1 -1 0 0 0 -1 -1 -3 -1 0 0 -4 -30 -20 0 0 0 0 0 0 0 0 -3 -1 -1 0 0 0 -1 -3 -7
-1 -12 -1 0 0 0 0 0 0 0 -1 0 0 -1 0 0 0 -1 -1 -1 -1 -1 -1 -1 -6 0 -1 0 0 0 -7 -6 -11 -7 0 0 0 -14 -13 0 -1 -7 -10
0 -5 -6 -2 0 -2 -3 0 0 0 0 0 0 0 0 0 0 -1 0 -1 -1 0 -2 -2 0 -1 0 0 0 -2 -8 -5 0 0 0 -1 0 -1 -1 -2 -6 0 -2
-1 -3 -1 -2 -2 -3 0 0 0 0 0 0 0 0 0 -1 0 0 0 0 -1 0 0 0 0 0 0 0 0 0 0 -10 0 0 0 0 0 -1 0 0 0 -1 -11
0 0 -4 -5 -46 -2 -9 -7 -4 -10 -4 0 0 0 0 -1 0 0 0 0 0 0 0 0 0 -1 -12 0 0 0 0 0 0 -2 0 0 0 0 0 0 0 0 -3
0 0 0 -9 0 -1 -1 0 0 0 -1 0 0 0 0 0 0 0 0 0 0 0 -2 0 0 0 -4 0 -4 -2 -1 -1 -14 -8 -1 -2 -13 -38 -27 -3 0 -2 -2
0 0 0 0 0 0 -2 0 0 0 -7 -16 -16 0 -1 -1 0 0 0 -22 -7 -1 0 0 0 0 0 0 -31 -2 0 -1 0 0 0 0 0 0 0 0 -2 0 -1
0 -1 0 0 0 -4 -3 -12 -9 -1 0 0 0 0 -1 0 0 0 0 0 0 0 0 -19 0 0 0 0 -4 -2 0 -9 -2 -1 -2 -50 -4 -87 -12 -47 -1 0 -1
0 -5 0 0 0 -2 -4 -1 -2 -3 0 0 -1 0 0 -1 -30 0 0 -2 -8 -14 0 0 0 0 0 0 0 -32 -23 0 0 -25 -95 -82 -78 -43 -6 -137 -2 -3 -1
0 -2 0 0 -1 -1 -6 -5 -12 -7 -2 -3 -3 -7 -1 -4 -17 0 0 0 -24 -55 -2 -1 -6 0 0 0 0 0 0 0 -37 -34 -7 -13 -1 0 -3 -4 -1 -1 -3
0 -1 0 0 0 -1 -4 0 0 0 -11 -5 -5 -14 -11 0 -16 0 0 0 0 -22 -1 -2 0 0 0 0 0 0 0 -19 -19 -26 -10 -60 -3 0 0 -1 -2 0 -6
-1 0 0 0 -3 -1 -1 0 0 0 -17 -14 -3 0 -2 0 0 0 0 -124 -99 -74 -71 -26 -44 -28 0 -34 -9 -28 0 0 -2 0 0 0 0 0 0 0 0 0 0
0 0 -8 -2 0 -6 -9 0 0 0 0 0 0 0 0 0 0 0 0 0 0 0 0 -5 0 0 0 0 0 0 0 -1 0 -1 0 0 0 0 0 0 0 0 0
-9 -1 -4 -1 -1 0 -28 0 0 0 0 0 0 0 0 0 0 0 0 0 0 0 -7 0 0 0 0 0 0 0 0 0 0 0 0 0 0 0 0 -1 -1 -1 0
-1 -3 -48 -24 -1 -3 0 -4 -25 0 0 0 0 0 0 0 0 0 0 0 0 0 0 0 0 0 0 0 0 0 0 0 0 0 0 0 0 0 0 0 0 0 0
-15 -39 -1 -2 -1 -2 -1 0 0 0 0 0 0 0 0 0 0 0 0 0 0 0 0 0 0 0 0 0 0 0 0 0 0 0 0 0 0 0 0 0 0 0 0
0 0 -9 -1 -1 -5 0 0 0 0 0 0 0 0 0 0 0 0 0 0 0 0 0 0 0 0 0 0 0 0 0 0 0 0 0 0 0 0 0 0 0 0 0
-12 -13 -29 -5 0 0 0 0 0 0 0 0 0 0 0 0 0 0 0 0 0 0 0 0 0 0 0 0 0 0 0 0 0 0 0 0 0 0 0 0 0 0 0
-4 -5 -4 -1 0 0 0 0 0 0 0 0 0 0 0 0 0 0 0 0 0 0 0 0 0 0 0 0 0 0 0 0 0 0 0 0 0 0 0 0 0 0 0
-1 0 0 0 0 0 0 0 0 0 0 0 0 0 0 0 0 0 0 0 0 0 0 0 0 0 0 0 0 0 0 0 0 0 0 0 0 0 0 0 0 0 0
0 0 0 0 0 0 0 0 0 0 0 0 0 0 0 0 0 0 0 0 0 0 0 0 0 0 0 0 0 0 0 0 0 0 0 0 0 0 0 0 0 0 0
-1 0 0 0 0 0 0 0 0 0 0 0 0 0 0 0 0 0 0 0 0 0 0 0 0 0 0 0 0 0 0 0 0 0 0 0 0 0 0 0 0 0 0
-13 0 0 0 0 0 0 0 0 0 0 0 0 0 0 0 0 0 0 0 0 0 0 0 0 0 0 0 0 0 0 0 0 0 0 0 0 0 0 0 0 0 0
0 -1 -1 0 -3 0 0 0 0 0 0 0 0 0 0 0 0 0 0 0 0 0 0 0 0 0 0 0 0 0 0 0 0 0 0 0 0 0 0 0 0 0 0
Wind_Speed
10 11 12 11 14 11 9 10 11 10 9 6 7 9 8 7 5 4 4 5 4 4 4 4 3 4 3 2 4 3 3 2 6 5 6 4 3 3 5 7 8 6 4
11 11 12 11 13 11 11 9 8 8 7 7 6 6 5 5 6 5 3 3 4 5 5 5 5 5 5 5 3 8 6 7 5 6 2 2 2 2 8 7 5 3 6
10 13 12 9 11 10 8 10 8 6 7 7 10 8 6 7 8 8 7 8 6 6 5 7 8 11 9 8 8 7 5 5 3 1 3 2 3 1 5 5 6 5 3
13 10 12 10 10 9 7 8 7 7 6 7 7 6 8 7 8 10 10 7 7 5 5 5 7 9 9 9 7 8 6 3 2 3 5 4 2 3 5 5 3 5 4
9 9 9 12 11 8 10 9 7 8 6 6 6 7 6 7 9 11 11 9 7 7 7 9 10 10 9 8 6 5 5 2 4 5 5 3 2 2 2 3 4 3 4
10 8 7 8 9 10 13 13 10 11 11 11 10 9 9 8 9 10 10 6 9 7 6 7 8 7 5 4 5 4 4 5 5 4 3 5 4 3 3 6 6 6 4
11 11 5 6 5 9 9 9 9 9 7 9 10 10 9 9 11 10 12 6 4 5 7 5 5 5 5 5 2 8 7 7 8 7 7 6 6 6 7 7 7 5 5
9 11 10 5 10 10 10 9 8 7 8 4 6 7 6 6 7 6 3 5 5 5 5 5 5 5 6 8 9 5 3 3 2 4 7 7 7 8 8 9 11 8 6
8 8 10 8 8 9 6 6 6 5 4 5 5 6 4 10 6 7 7 6 5 5 4 5 6 8 8 8 10 5 6 3 6 8 8 8 9 8 9 6 6 8 6
9 8 8 8 8 7 9 10 8 7 7 4 5 5 3 10 6 5 4 2 3 4 5 8 5 6 8 9 9 7 7 9 12 11 3 8 12 10 14 8 5 6 7
7 6 6 4 5 5 6 6 5 4 4 4 6 7 9 7 6 5 4 4 5 4 6 6 6 1 5 8 6 7 8 6 8 8 7 5 7 5 7 8 6 3 7
5 3 2 5 6 5 5 2 1 3 4 4 6 4 7 8 4 2 8 7 10 6 7 7 3 6 8 9 8 5 10 7 8 5 5 6 7 6 3 3 6 7 7
4 3 7 7 8 6 5 8 8 7 6 8 5 3 4 9 10 3 6 13 10 5 5 1 8 11 12 8 16 16 9 3 3 2 3 2 6 5 4 5 7 5 10
4 3 3 8 5 5 7 9 10 10 8 7 7 8 7 9 8 6 7 5 9 5 1 8 2 8 10 8 7 1 7 8 8 8 9 7 6 7 7 7 8 8 8
1 4 2 4 4 7 8 8 8 8 7 9 9 8 9 8 8 8 8 9 9 10 11 3 7 7 7 8 8 8 8 9 10 9 9 9 9 9 9 8 8 8 10
4 4 4 3 1 3 7 7 9 7 1 5 5 10 5 5 7 9 10 12 14 15 9 7 7 7 8 8 8 9 9 10 10 9 9 10 10 10 10 9 9 9 10
5 2 5 4 3 1 3 6 8 3 4 7 7 7 4 4 9 9 9 10 14 13 6 6 7 7 7 8 9 9 10 10 10 9 10 10 10 10 10 10 9 10 10
8 6 5 4 6 4 4 5 5 5 4 7 6 1 5 3 8 11 14 7 4 6 7 7 7 7 7 8 8 9 9 9 9 10 10 10 10 10 10 10 10 10 10
4 5 4 6 6 2 5 4 5 5 5 6 6 2 4 8 7 11 13 8 7 7 7 7 7 7 7 8 8 8 8 8 9 10 10 10 10 10 10 10 10 10 10
3 6 9 8 3 5 5 5 5 4 4 5 7 7 6 5 6 7 7 7 7 7 7 7 7 7 7 8 8 8 8 9 10 10 10 9 9 10 10 10 10 11 10
4 6 10 6 5 5 5 4 4 4 5 4 6 5 5 7 6 6 6 7 7 7 7 7 7 7 8 8 8 8 9 10 10 10 10 10 10 10 10 10 10 10 10
8 5 5 5 4 5 5 3 4 5 5 5 4 6 6 3 6 6 6 6 6 6 6 7 8 8 8 9 9 9 10 11 11 11 11 10 9 10 10 10 10 10 11
6 5 3 3 2 3 4 4 5 6 5 4 5 5 5 5 5 6 5 5 5 6 6 6 8 8 9 9 9 10 10 11 10 11 12 11 10 10 10 10 11 10 11
9 4 4 3 4 5 5 3 3 2 4 5 4 4 4 4 4 5 5 4 5 5 5 6 6 9 9 10 9 10 9 9 10 11 16 10 9 11 10 10 10 11 10
4 3 5 5 3 4 1 3 3 4 4 4 4 4 4 4 4 4 4 4 4 5 5 5 6 9 10 12 13 13 11 10 10 10 11 13 11 12 12 9 11 10 11
7 2 4 5 8 2 3 3 2 3 3 3 3 3 3 3 4 4 4 4 4 4 5 5 6 9 11 10 12 9 8 9 11 13 13 9 9 8 10 11 13 9 11
Wind_Direction
352 6 5 11 2 358 4 355 354 354 8 346 32 33 27 18 31 63 55 21 23 325 342 310 280 232 5 344 313 14 359 5 326 4 11 338 353 308 304 290 268 252 232
0 23 20 26 346 7 349 352 349 346 352 343 25 22 39 347 336 342 357 19 346 342 352 5 22 17 344 29 335 11 28 47 15 340 321 324 257 294 290 275 264 268 189
14 34 23 2 345 349 358 355 7 6 11 8 339 7 13 7 7 344 342 344 348 324 339 355 2 33 27 15 22 21 34 40 30 315 293 236 247 289 293 261 267 264 288
38 31 356 6 350 353 12 2 7 0 5 334 10 15 22 26 22 2 359 356 348 346 5 344 53 32 15 3 38 30 23 8 328 281 290 276 256 200 257 282 275 241 249
14 41 13 353 9 15 360 3 16 9 18 349 34 40 24 46 29 358 357 12 10 32 7 47 50 52 41 24 1 18 21 341 301 279 286 174 96 217 194 247 292 322 266
41 28 22 14 19 22 10 16 17 21 24 26 18 17 26 47 9 3 351 2 24 22 25 31 31 30 38 61 35 20 349 330 306 338 343 47 50 33 1 339 343 352 350
17 16 40 33 27 18 18 22 22 21 30 28 19 19 27 36 10 7 353 58 59 49 36 32 37 50 27 2 306 250 248 250 263 307 358 25 12 10 344 338 338 327 308
15 9 359 51 12 12 16 23 25 16 32 27 12 19 24 40 12 4 26 52 52 57 50 39 30 38 37 349 317 276 134 146 262 337 351 357 353 347 339 319 306 300 271
10 18 349 15 19 20 57 43 24 38 23 15 19 28 27 61 24 1 7 30 54 59 46 49 342 56 13 342 309 32 55 51 185 222 243 249 249 246 247 292 336 347 359
1 20 343 17 44 43 41 39 33 45 55 81 88 58 63 71 60 3 341 315 100 112 123 107 67 24 343 342 343 354 7 13 341 338 245 261 254 241 230 242 304 318 322
2 355 349 10 76 62 23 19 19 357 349 6 42 52 72 51 65 1 348 221 355 311 90 88 79 16 297 300 310 317 323 323 297 295 298 243 257 208 237 214 274 259 293
44 9 69 61 40 30 48 6 342 352 24 67 89 113 87 93 64 24 336 342 337 325 42 46 68 275 270 276 286 289 283 275 251 242 326 354 360 345 26 334 289 270 279
100 80 37 33 56 37 27 31 38 36 39 32 73 125 96 39 43 43 290 300 300 339 35 39 261 272 272 273 252 271 288 273 312 342 353 228 298 315 319 12 308 298 242
53 85 68 79 27 26 39 59 35 19 8 24 18 25 47 50 39 16 340 302 263 263 356 273 230 280 293 306 317 285 18 2 340 355 353 346 348 2 358 7 342 346 333
233 65 7 77 75 105 57 22 69 52 33 26 11 43 12 19 12 325 328 347 345 332 317 328 20 16 16 16 13 15 24 -0 358 353 359 351 355 345 6 343 351 357 345
1 355 52 345 240 19 147 116 43 56 5 113 59 38 73 66 326 320 320 321 317 318 315 23 20 16 15 12 8 10 14 14 352 351 360 357 355 346 353 354 2 4 354
305 59 299 319 329 29 301 195 141 159 274 303 110 93 65 325 332 325 316 321 297 312 32 22 22 19 14 13 10 14 5 14 350 1 4 1 357 348 353 356 8 2 357
285 268 339 337 324 345 8 50 45 33 91 148 220 123 166 285 313 326 322 326 34 25 28 23 18 16 12 16 9 15 354 10 4 356 2 360 360 349 358 359 9 5 350
350 20 338 303 302 346 4 47 42 44 34 41 39 217 198 215 251 286 307 21 28 28 17 23 14 9 14 14 11 7 348 9 7 356 360 3 1 354 358 360 3 359 13
350 288 264 290 8 32 32 24 23 36 40 56 48 12 2 346 37 29 38 28 23 30 14 4 17 5 16 13 9 359 0 11 11 360 355 358 5 355 356 3 1 357 18
304 287 261 279 52 11 23 15 14 13 20 50 100 61 294 307 33 37 35 34 28 27 20 354 13 16 15 14 7 3 8 10 4 359 352 357 10 353 359 360 6 2 16
293 291 24 27 27 36 342 0 18 13 27 19 30 133 237 321 31 39 39 32 26 27 21 7 10 23 15 10 5 8 16 8 357 353 346 356 5 355 359 2 1 8 3
293 336 25 54 9 193 229 13 27 4 8 36 13 24 29 35 32 28 42 30 33 28 24 23 18 24 18 10 11 25 18 4 344 345 339 349 1 356 354 6 356 11 3
323 332 339 73 54 343 18 348 61 152 345 22 31 21 28 25 35 48 34 33 24 39 25 33 29 27 28 17 18 13 24 355 327 350 331 348 4 357 354 9 354 10 11
189 327 316 326 359 351 138 327 25 3 22 23 17 11 27 18 32 33 40 22 36 25 43 32 26 26 38 36 21 13 359 333 327 329 336 322 359 20 350 5 358 9 17
271 286 296 310 322 6 338 334 358 356 13 10 20 19 7 360 32 31 34 31 10 39 20 41 33 47 26 36 21 0 342 337 335 329 329 353 7 25 357 360 4 12 10